COSMOS 2251 DEB

Satellite information

Favourite Embed

Satellite Type and Status

DEBRISIN ORBIT

Key statistics

Satellite COSMOS 2251 DEB at a glance.

Uptime

11651

Days in orbit

Revolutions

≈ 13.7

Per day

Orbit

LEO

Low Earth Orbit

Inclination

74.0

Latest

Satellite identification and parameters

Extended collection of information and parameters for COSMOS 2251 DEB.

Object identification

Identified? True

Debris? True

Object name: COSMOS 2251 DEB

International designator: 1993-036JB

Object number (NORAD): 34040

Object ID (CCSDS): 34040

Country: COMMONWEALTH OF INDEPENDENT STATES (CIS)

Current information (Y/N): Y

RCS size: SMALL

Orbital parameters

Period: 105.282 minutes

Inclination: 73.9569 deg

SMA: 7385.789 km

Apoapsis: 1259.34 km

Periapsis: 755.967 km

RAAN: 65.5602 deg

Eccentricy: 0.0340771

Argument of periapsis: 63.1698 deg

Mean anomaly: 300.3834 deg

Mean motion: 13.67752305 rev/day

Mean motion (dot): 0.00001562 rev/day2

B* drag term: 0.0012488 1/REarth

Two-line elements (TLE)

Creation date: May 9, 2025, 2:46 a.m.

Reference frame: TEME

Reference center: EARTH

Epoch: May 8, 2025, 10:05 p.m. UTC

TLE line 0: 0 COSMOS 2251 DEB

TLE line 1: 1 34040U 93036JB 25128.92077488 .00001562 00000-0 12488-2 0 9994

TLE line 2: 2 34040 73.9569 65.5602 0340771 63.1698 300.3834 13.67752305806218

Live tracking on map

Real-time ground track for satellite COSMOS 2251 DEB.

In-orbit conjunctions

A list of the most updated potential collisions computed for object COSMOS 2251 DEB.

Target Orbit TCA Probability of collision Miss distance Type
FENGYUN 1C DEB SSO 2025-02-03 23:16:58 0.0001122549 84.0 (m) DEBRIS
FENGYUN 1C DEB SSO 2024-12-27 20:17:18 0.0001267659 193.0 (m) DEBRIS

Associated space launch

Military communications satellite. Destroyed in a collision with Iridium 33.

COSMOS 2251 DEB was lifted into orbit during the mission ‘Kosmos-3M | Strela-2M 51’, on board a Kosmos-3M space rocket.

The launch took place on June 16, 1993, 4:17 a.m. from 132/1 (132L).

For more information about the launch, click the button.

Launch to space Kosmos-3M | Strela-2M 51
Kosmos-3M | Strela-2M 51

Agency: N/A

Status: Launch Successful

Launch date: June 16, 1993, 4:17 a.m. UTC

Rocket: Kosmos-3M

Launch pad: 132/1 (132L)

Location: Plesetsk Cosmodrome, Russian Federation

...

Latest news about this satellite

There are no fresh news available about this satellite. Check back as we update our databases every day.


Newsletter sign-up

Weekly statistics, charts and insights to help you stay on top of the space industry.